Regional Weather Roundup
Issued by NWS

Home | Current Version | Previous Version | Text Only | Print | Product List | Glossary On
Versions: 1 2 3 4 5 6 7 8 9 10 11 12 13 14 15 16 17 18 19 20 21 22 23 24 25 26 27 28 29 30 31 32 33 34 35 36 37 38 39 40 41 42 43 44 45 46 47 48 49 50
000
ASUS45 KBOI 281710
RWRID

IDAHO REGIONAL WEATHER ROUNDUP
NATIONAL WEATHER SERVICE BOISE ID
1100 AM MDT TUE JUL 28 2015

NOTE: "FAIR" INDICATES FEW OR NO CLOUDS BELOW 12000 FEET
WITH NO SIGNIFICANT WEATHER AND/OR OBSTRUCTIONS TO VISIBILITY

IDZ012-014-281800-
SOUTHWEST IDAHO


CITY           SKY/WX    TMP DP  RH WIND       PRES   REMARKS
BOISE          SUNNY     66  39  37 W5        30.27S
CALDWELL       SUNNY     66  37  34 CALM      30.28F
MOUNTAIN HOME  SUNNY     66  35  30 VRB2      30.27F
$$

IDZ016-017-281800-
SOUTHCENTRAL IDAHO


CITY           SKY/WX    TMP DP  RH WIND       PRES   REMARKS
BURLEY         SUNNY     60  36  40 CALM      30.31S
JEROME         SUNNY     62  37  39 VRB3      30.31S
TWIN FALLS     SUNNY     66  36  32 NW7       30.28S
$$

IDZ019>023-281800-
SOUTHEAST IDAHO


CITY           SKY/WX    TMP DP  RH WIND       PRES   REMARKS
IDAHO FALLS    MOSUNNY   59  38  45 CALM      30.33S
POCATELLO      MOSUNNY   61  38  42 CALM      30.34S
REXBURG        SUNNY     57  36  45 VRB5      30.33F
$$

IDZ006-010-011-018-031-032-281800-
CENTRAL IDAHO MOUNTAINS


CITY           SKY/WX    TMP DP  RH WIND       PRES   REMARKS
MCCALL         SUNNY     56  35  45 CALM      30.32S
HAILEY         MOSUNNY   57  36  44 SE7       30.35S
STANLEY          N/A     44  37  76 CALM      30.42R
SALMON         CLOUDY    54  39  58 CALM      30.33S
CHALLIS        MOSUNNY   55  38  52 CALM      30.35F
$$

IDZ002-004-006-007-026-281800-
NORTHERN IDAHO


CITY           SKY/WX    TMP DP  RH WIND       PRES   REMARKS
LEWISTON       SUNNY     68  47  46 N5        30.24F
LOWELL           N/A     59  50  72 VRB3      30.30F
COEUR D`ALENE  SUNNY     64  46  52 S10       30.23S
MULLAN PASS    MOSUNNY   50  41  71 VRB3      30.30S
$$



USA.gov is the U.S. government's official web portal to all federal, state and local government web resources and services.